Wind_Speed
102 101 101 99 98 96 95 94 92 90 89 88 86 85 84 83 81 80 79 78 76 74 72 70 68 66 63 61 58 56 53 51 50 49 48 47 47 47 47 47 48 49 49 50 51 52 53 53 53 53 53 53 52 50 49 48 47 46 46 45 45 44 43 42 42 41 40 39 38 37 36 35 35 34 33 33 32 32 32 32 31 31 30 29 27 26
101 100 98 97 95 94 92 91 90 88 87 85 84 83 82 80 79 78 77 75 74 72 69 67 65 63 60 58 56 53 51 50 48 47 47 46 46 46 47 47 48 49 50 51 52 53 53 53 54 54 54 53 52 50 49 47 47 47 46 46 46 45 44 43 42 41 41 39 39 37 37 36 35 34 34 33 32 32 32 31 31 30 30 29 27 26
98 97 96 94 93 91 90 89 88 86 85 83 82 81 80 78 77 76 75 73 71 69 67 64 62 60 58 56 54 51 50 48 47 47 46 46 46 46 46 47 48 49 50 51 52 53 53 54 54 54 54 53 52 50 49 47 47 47 47 46 46 45 45 44 43 42 42 40 39 38 37 36 36 35 34 33 33 32 32 31 31 30 30 29 27 26
96 94 93 92 90 89 88 87 85 84 83 82 80 79 77 76 75 74 72 71 68 66 64 62 60 58 55 54 52 50 48 47 47 46 46 45 45 46 46 47 48 49 50 51 52 53 53 54 54 54 54 53 52 50 49 48 47 47 47 47 47 46 45 45 44 43 42 41 40 39 38 37 36 35 35 34 33 32 32 31 31 30 30 29 28 26
93 92 91 89 88 87 86 85 83 82 81 79 78 76 75 74 73 72 70 68 66 64 61 59 57 55 53 51 50 48 48 47 46 46 45 45 45 46 46 47 48 49 50 51 52 53 54 54 55 55 55 54 52 51 49 48 47 47 47 47 47 47 46 45 45 44 43 42 41 40 39 38 37 36 35 34 33 33 32 31 31 30 30 29 28 27
91 90 89 87 86 85 84 83 81 80 78 77 75 74 73 72 70 69 67 65 63 61 59 57 55 53 51 50 48 47 47 46 46 45 45 45 45 46 46 47 48 49 50 51 52 53 54 55 55 55 55 54 52 51 49 48 48 48 48 48 48 47 47 46 45 45 44 43 42 41 39 38 37 36 36 35 34 33 32 32 31 30 30 29 28 28
89 88 87 85 84 83 81 80 79 77 76 74 73 72 71 69 68 66 65 62 60 58 56 54 52 51 49 48 47 47 46 45 45 45 45 45 45 46 46 47 48 49 51 52 53 54 54 55 55 55 55 54 52 51 50 49 48 48 48 48 48 48 48 47 46 45 44 44 42 41 40 39 38 37 36 35 35 34 33 32 31 31 30 29 29 28
87 86 85 83 82 81 79 78 76 74 73 71 70 69 68 67 66 64 62 60 58 56 54 52 50 49 48 47 46 46 45 45 45 45 45 45 45 46 46 47 48 50 51 52 53 54 55 55 56 56 55 54 53 51 50 49 49 49 49 49 49 49 48 48 47 46 45 44 43 42 40 39 38 37 37 36 35 34 33 33 32 31 30 30 29 29
85 84 82 81 79 78 76 75 74 72 70 69 67 67 66 64 63 61 59 57 55 54 52 50 48 47 46 46 45 45 45 45 44 44 45 45 45 46 47 48 49 50 52 53 54 55 55 56 56 56 55 54 53 51 50 50 49 50 50 50 50 50 49 48 48 47 46 45 44 42 41 40 38 38 37 36 36 35 34 33 32 32 31 30 30 29
82 81 80 78 77 75 73 72 71 70 68 66 65 64 63 62 60 58 57 55 53 51 50 48 47 46 46 45 45 44 44 44 44 45 45 45 45 46 47 48 50 51 52 53 54 55 56 56 56 56 55 54 53 51 51 50 50 50 50 51 51 51 50 49 48 47 46 45 44 43 41 40 39 38 37 37 36 36 35 34 33 33 32 31 31 30
80 78 77 75 74 73 71 69 68 67 65 64 63 62 61 59 57 55 54 52 51 49 48 47 46 45 44 44 44 44 44 44 45 45 45 45 45 46 47 49 50 52 53 54 55 55 56 56 56 56 55 54 53 52 51 51 51 51 51 51 51 51 51 50 49 48 47 46 44 43 41 40 39 38 37 37 37 36 36 35 34 33 33 32 31 31
77 76 74 73 71 70 69 67 66 64 63 62 61 60 58 57 55 53 51 50 49 48 46 46 45 44 43 43 44 44 44 44 45 45 45 45 46 47 48 49 51 52 54 54 55 56 56 56 56 56 55 54 53 52 51 51 51 51 52 52 52 52 51 50 49 48 47 46 45 43 41 40 39 38 38 37 37 37 36 36 35 34 34 33 32 32
75 73 72 70 69 67 66 65 63 62 61 59 58 57 56 54 53 51 49 48 47 46 45 44 44 43 43 43 43 44 44 45 45 45 45 46 46 47 49 50 52 53 54 55 56 56 56 56 56 56 55 54 53 52 52 52 52 52 52 52 53 52 52 51 50 49 48 46 45 43 41 40 39 38 38 38 38 37 37 36 36 35 35 34 33 33
72 71 69 68 66 65 64 62 61 60 59 57 56 55 54 52 51 49 48 47 46 45 44 43 43 43 43 43 43 44 44 45 45 45 46 46 47 48 49 51 53 54 55 55 56 56 56 57 56 56 55 54 53 52 52 52 52 52 53 53 53 53 52 51 50 49 48 46 45 43 41 40 39 38 38 38 38 38 38 37 37 36 36 35 35 34
70 68 67 65 64 63 62 60 59 58 57 56 54 53 52 51 50 48 47 46 45 44 43 42 42 42 42 43 44 44 44 45 45 46 46 47 48 49 50 52 53 54 55 56 56 57 57 57 56 56 55 54 53 53 53 53 53 53 53 53 53 53 52 51 50 49 48 46 45 43 41 39 38 38 37 37 38 38 38 38 37 37 36 36 35 35
67 66 64 63 62 61 60 58 57 56 55 54 53 51 50 49 48 47 45 44 43 42 41 41 41 41 43 44 44 44 45 45 46 46 47 48 49 50 51 53 54 55 56 56 56 57 57 57 56 55 55 54 53 53 53 53 53 53 53 54 54 53 53 51 50 49 48 46 45 43 41 39 38 37 37 37 38 38 38 38 38 38 37 37 36 36
65 63 62 61 60 59 58 57 55 54 53 52 51 50 49 48 47 45 44 43 42 41 40 40 40 41 43 44 45 45 45 45 46 47 47 48 50 51 52 53 55 56 56 56 57 57 57 57 56 55 54 54 53 53 53 53 53 54 54 54 54 54 53 52 50 49 48 46 45 43 41 39 38 37 37 37 37 38 39 39 39 39 38 38 37 37
63 61 60 59 58 57 56 55 54 53 52 51 50 49 47 46 45 44 43 42 41 40 40 40 41 42 43 44 45 45 45 45 46 47 48 49 51 52 53 54 55 56 56 57 57 57 57 56 56 55 54 54 54 54 54 54 54 54 54 55 55 54 53 52 50 49 48 46 45 43 41 39 38 37 37 37 37 38 38 39 39 39 39 39 39 38
60 59 58 57 56 55 54 53 52 51 50 49 48 47 46 45 44 42 41 41 40 40 40 41 42 43 44 44 45 45 45 45 46 47 49 51 52 54 54 55 56 56 57 57 57 57 57 56 56 55 54 54 54 54 54 54 54 55 55 55 55 54 53 52 51 49 48 46 45 43 41 40 38 37 37 36 37 37 38 39 39 40 40 40 39 39
59 57 56 55 54 53 52 52 50 49 48 47 46 45 44 43 42 41 41 40 40 41 41 42 43 44 44 45 45 45 45 46 47 48 50 52 54 55 55 56 56 57 57 58 58 57 57 56 56 55 55 54 54 54 54 54 55 55 55 56 55 55 54 52 51 49 48 46 45 43 41 40 38 38 37 36 36 37 37 38 39 40 40 40 40 40
57 56 55 53 52 51 50 50 49 47 46 45 44 43 42 41 41 40 40 40 41 42 42 43 44 45 45 45 46 46 46 46 48 50 52 54 55 56 56 56 57 58 58 58 58 58 57 56 56 55 55 55 55 55 55 55 55 56 56 56 56 55 54 52 51 50 48 46 45 43 41 40 39 38 37 37 37 37 37 38 38 39 40 40 41 41
55 54 53 52 50 49 48 48 47 46 44 43 42 41 41 40 40 40 40 41 42 42 43 44 45 45 46 46 46 47 47 48 49 51 53 55 56 57 57 57 57 58 59 59 58 58 57 56 56 55 55 55 55 55 55 55 56 56 56 56 56 55 54 52 51 50 48 47 45 43 41 40 39 38 38 37 37 37 37 37 38 39 40 40 41 41
52 51 50 49 48 47 46 46 45 44 43 42 41 40 40 40 40 41 41 42 43 44 44 45 45 46 46 47 47 48 48 49 51 53 54 56 57 58 58 58 58 59 59 59 59 58 57 56 56 56 55 55 56 56 56 56 56 57 57 57 56 55 54 53 51 50 49 47 45 43 41 40 39 39 38 38 38 38 38 38 38 39 40 40 41 41
50 49 48 47 46 45 44 44 43 42 41 41 40 40 40 41 41 42 43 43 44 44 45 45 46 46 47 48 48 50 51 52 53 54 56 57 58 58 58 58 59 59 60 59 59 58 57 57 56 56 56 56 56 56 57 57 57 57 57 57 56 55 54 53 52 50 49 47 45 43 42 41 40 39 39 39 39 39 39 39 39 39 40 40 41 42
48 47 46 46 45 44 43 42 41 41 40 40 40 41 41 42 42 43 44 44 44 45 45 45 46 47 48 49 50 52 53 54 55 55 56 57 58 59 59 59 59 60 60 59 59 58 57 57 57 56 56 57 57 57 57 58 58 58 58 57 57 55 54 53 52 51 49 48 46 44 42 41 40 40 40 40 40 40 40 40 40 40 41 41 42 42
47 46 45 44 43 42 41 41 41 40 40 41 41 42 42 43 43 44 44 44 45 45 45 46 47 48 50 51 52 54 55 55 56 56 57 58 59 60 60 60 60 60 60 59 58 58 57 57 57 57 57 57 57 58 58 58 59 59 58 58 57 56 55 54 53 51 50 48 46 45 43 42 41 41 41 41 41 41 41 41 41 42 42 42 42 43
45 44 43 43 42 41 41 41 41 41 41 42 42 43 43 44 44 45 45 45 45 46 47 48 49 50 52 53 54 55 56 56 57 57 58 59 60 60 61 61 60 60 60 59 58 58 57 57 58 58 58 58 58 59 59 59 59 59 59 58 57 56 55 54 53 52 50 49 47 45 44 43 42 42 42 42 42 42 42 42 43 43 43 43 43 44
44 43 42 42 41 41 41 41 41 42 42 43 43 43 44 44 45 45 46 46 47 47 48 50 51 52 53 55 56 56 57 58 58 58 59 59 61 61 61 61 61 60 60 59 58 58 58 58 58 58 58 59 59 59 60 60 60 60 59 58 57 56 55 54 53 52 51 49 48 46 45 44 44 43 43 43 43 43 43 43 43 44 44 44 44 45
43 42 42 42 41 41 42 42 42 43 43 44 44 44 45 45 46 47 47 48 48 49 50 51 53 54 55 56 57 57 58 59 59 59 60 60 62 62 62 61 61 60 59 59 59 58 58 58 58 59 59 60 60 60 61 61 61 60 59 58 57 56 56 55 54 53 51 50 48 47 46 45 45 45 44 44 44 44 44 44 44 45 45 45 45 46
43 42 42 42 42 42 43 43 44 44 44 45 45 46 46 47 47 48 49 49 50 51 52 53 54 55 56 57 58 59 60 60 60 60 61 61 62 63 62 61 60 59 59 58 59 59 59 59 59 59 60 60 61 61 62 62 61 60 59 58 58 57 56 55 54 53 52 50 49 47 47 46 46 46 46 46 46 46 45 45 45 46 46 46 46 46
43 42 42 43 43 43 44 44 45 45 46 46 46 47 47 48 49 49 50 51 52 52 53 54 55 56 57 58 59 60 61 62 62 61 62 62 63 63 62 61 60 59 58 58 59 60 60 61 60 60 61 61 62 62 62 62 62 61 60 59 58 57 57 56 55 54 52 51 49 48 48 47 47 47 47 47 47 47 47 47 47 47 47 47 47 47
43 43 44 44 45 45 45 46 46 47 47 47 48 48 49 49 50 51 51 52 53 54 55 56 57 57 58 59 60 61 62 63 63 62 62 63 63 63 61 60 60 59 58 58 59 60 61 62 62 62 62 62 63 63 63 63 62 61 60 59 59 58 57 57 56 54 53 51 50 49 49 48 48 48 48 48 48 48 48 48 48 48 49 49 49 49
44 44 45 45 46 47 47 47 48 48 48 49 49 49 50 50 51 52 52 53 54 55 56 57 58 59 60 60 61 62 63 63 63 63 63 63 63 62 61 60 59 59 59 59 60 60 61 62 63 63 63 63 64 64 64 63 62 61 60 60 59 59 58 57 56 55 53 52 51 50 50 49 49 49 49 50 50 50 50 50 50 50 50 50 51 51
45 46 46 47 47 48 48 48 49 49 49 50 50 50 51 51 52 52 53 54 55 56 57 58 59 60 61 62 62 63 64 64 64 64 63 62 62 61 60 59 59 60 60 61 61 62 62 63 63 64 64 64 64 64 64 63 62 61 61 60 60 59 59 58 57 55 54 53 52 51 51 51 51 51 51 51 51 51 52 52 52 52 52 52 53 53
46 47 48 48 48 49 49 49 49 49 50 50 50 51 51 52 53 54 55 56 56 57 58 59 60 61 62 63 63 64 65 65 64 63 62 61 60 60 60 60 60 61 61 62 63 63 64 64 65 65 65 65 65 64 64 63 62 62 61 61 60 60 59 58 57 56 55 54 53 53 52 52 52 52 52 53 53 53 53 54 54 54 54 54 55 55
48 48 48 49 49 49 49 49 49 50 50 50 51 51 52 53 54 55 56 57 58 59 60 60 61 62 63 63 64 65 65 64 64 62 61 60 60 60 60 61 61 61 62 63 64 65 66 66 66 66 66 66 66 65 64 63 62 62 62 61 61 60 60 58 57 56 55 54 54 54 54 54 54 54 54 54 55 55 55 55 56 56 56 57 57 57
49 49 49 49 49 49 49 49 50 50 50 51 52 53 54 55 56 57 58 59 59 60 61 62 63 63 64 64 64 64 64 63 62 61 61 60 60 60 61 62 62 63 63 64 65 66 67 68 68 67 67 66 66 65 64 63 63 62 62 62 61 61 60 59 57 56 56 55 55 55 55 55 55 56 56 56 57 57 57 57 58 58 58 58 58 59
49 49 49 49 49 49 49 50 50 51 51 52 53 54 55 56 57 58 59 60 61 62 63 64 64 64 64 64 64 63 62 62 61 61 61 61 61 61 62 63 64 64 65 66 67 67 68 69 69 69 68 67 66 65 64 64 63 63 63 62 61 61 60 59 58 57 56 56 56 56 56 56 57 57 58 58 58 59 59 59 59 59 60 60 60 60
49 49 49 49 49 49 50 50 51 52 53 53 54 55 57 58 59 60 61 62 63 64 64 65 65 65 64 63 62 62 61 61 61 61 61 61 62 63 63 64 65 66 66 67 67 68 69 69 69 69 68 67 67 65 65 64 64 63 63 62 62 61 60 59 58 57 57 57 57 57 57 58 58 59 59 59 60 60 61 61 61 61 61 61 61 61
48 48 49 49 49 50 51 51 52 53 54 55 56 57 58 60 61 62 62 63 64 64 65 64 64 63 63 62 61 61 61 61 61 61 62 63 63 64 65 65 66 67 68 68 69 69 69 69 69 69 68 68 67 67 66 65 64 63 63 62 62 61 60 59 58 58 58 57 58 58 59 59 60 60 60 61 61 62 62 62 62 62 62 62 61 61
48 48 49 50 50 51 52 53 54 55 56 57 58 59 60 61 62 63 64 64 64 64 64 63 62 62 61 61 60 61 61 61 62 63 63 64 65 65 66 67 67 68 69 69 69 69 69 69 69 69 68 68 68 67 67 66 64 63 63 62 62 61 60 59 59 59 59 59 59 60 60 61 61 61 62 62 62 63 63 63 63 62 62 62 62 62
48 49 50 51 52 53 54 54 55 56 57 58 60 61 62 63 63 64 64 64 63 63 62 61 61 61 60 60 61 61 62 62 63 64 64 65 66 67 67 68 69 69 70 70 70 70 70 69 69 69 69 69 69 68 67 66 65 63 62 62 61 61 60 60 60 59 60 60 61 61 62 62 63 63 63 63 63 63 63 63 63 63 62 62 62 61
49 51 52 52 54 54 55 56 57 58 59 60 61 62 63 63 63 63 62 62 62 61 60 60 60 60 61 61 62 62 63 63 64 65 66 67 67 68 69 69 70 70 70 70 70 70 70 70 70 70 69 69 69 69 68 67 65 64 63 62 62 61 61 61 61 61 61 62 62 63 63 63 64 64 64 64 64 64 64 63 63 62 62 62 62 61
51 52 53 54 55 56 57 58 59 60 61 61 62 62 62 62 61 61 61 60 60 60 60 60 60 61 62 62 63 63 64 65 65 66 67 68 68 69 70 70 70 70 70 70 71 71 70 70 70 70 70 69 69 69 68 66 65 64 63 63 62 62 62 62 62 62 63 63 64 64 64 64 64 65 65 65 64 64 64 63 63 62 62 62 61 61
53 54 55 56 57 58 59 60 61 61 61 61 61 61 61 60 60 60 60 60 60 60 61 61 62 62 63 64 64 65 66 66 67 67 68 69 69 70 70 70 70 70 70 70 71 71 71 71 71 70 70 69 69 68 67 66 66 65 64 64 63 63 63 63 63 64 64 65 65 65 65 65 65 65 65 65 64 64 63 63 63 62 62 62 61 61
55 56 57 58 59 59 60 60 60 60 60 60 60 59 59 59 59 59 59 60 60 61 62 62 63 64 65 66 66 67 67 68 68 68 69 69 70 70 70 70 70 71 71 71 71 71 71 71 71 70 70 69 69 68 67 66 66 66 65 65 65 65 65 65 65 65 65 66 66 66 65 65 65 65 65 65 64 64 63 63 63 62 62 62 62 62
56 57 58 58 58 59 59 59 58 58 58 58 58 58 58 59 59 60 60 61 62 63 63 64 65 66 67 67 68 68 69 69 69 69 69 69 70 70 70 70 71 71 71 71 71 71 71 70 70 70 70 69 69 68 67 67 66 66 67 66 66 66 66 66 66 66 66 66 66 66 65 65 65 65 65 65 64 64 64 63 63 62 62 62 62 62
56 56 56 56 57 57 57 57 57 57 57 58 58 59 59 60 60 61 62 63 63 64 65 66 67 67 68 68 69 69 69 69 69 69 69 69 70 70 70 71 71 71 71 71 71 71 71 70 70 69 69 69 69 69 68 68 67 67 68 68 67 67 67 67 67 66 66 66 66 66 65 65 65 65 65 65 64 64 64 63 63 63 62 62 62 62
54 54 54 55 55 55 56 56 56 57 58 58 59 60 60 61 62 62 63 64 65 65 66 67 68 68 69 69 69 69 69 70 70 69 69 69 70 70 70 70 71 71 71 71 71 71 70 70 70 69 69 69 69 69 69 69 69 69 68 68 68 68 68 67 67 66 66 66 66 65 65 65 64 64 65 65 65 65 64 64 63 63 63 62 62 62
53 53 54 54 55 55 56 57 57 58 59 59 60 61 62 62 63 63 64 65 65 66 67 67 68 69 69 69 70 70 70 70 70 70 70 69 69 70 70 70 70 70 71 71 71 70 71 71 70 70 69 69 69 69 70 70 69 69 69 69 68 68 67 67 66 66 66 65 65 65 65 64 64 64 64 65 65 65 65 64 64 63 62 62 62 61
53 53 54 55 55 56 57 58 59 59 60 61 62 62 63 63 64 64 64 65 66 66 67 67 68 69 70 70 70 70 70 70 70 70 70 69 69 69 70 70 70 70 70 71 71 71 71 71 71 71 70 69 68 69 69 70 70 69 69 68 68 67 67 66 66 65 65 65 65 65 65 64 64 64 64 65 65 65 65 64 64 63 62 61 61 60
Wind_Direction
291 292 292 293 293 293 294 294 294 294 294 294 294 294 295 295 295 295 295 295 296 296 296 296 297 297 296 296 295 295 294 293 292 292 292 292 293 294 296 297 298 299 300 301 302 303 305 307 309 311 313 314 314 314 313 312 313 313 314 314 314 314 313 312 311 309 307 303 300 296 294 292 292 292 293 293 294 295 296 297 298 300 301 303 305 307
291 292 292 293 293 293 293 293 293 293 293 294 294 294 294 294 294 295 295 295 295 295 296 296 296 295 295 294 294 293 292 291 291 291 291 292 293 294 295 296 297 298 299 300 302 303 305 306 308 310 312 313 314 313 312 312 312 313 313 314 314 313 312 311 310 309 307 304 301 297 293 291 290 290 290 291 291 292 293 294 295 296 298 300 302 304
291 291 292 292 292 292 292 292 293 293 293 293 294 294 294 294 294 294 294 294 295 295 295 295 294 294 293 293 292 291 290 290 289 289 290 291 292 294 295 296 297 298 299 300 301 303 304 306 308 310 312 313 313 312 311 311 311 312 313 313 313 313 312 311 310 309 307 305 302 298 294 290 288 288 288 288 288 289 290 291 292 293 295 296 298 300
291 291 291 292 292 292 292 292 292 293 293 293 293 293 293 293 294 294 294 294 294 294 294 294 293 293 292 291 290 289 289 288 288 289 290 291 292 293 295 296 296 297 298 299 301 302 304 306 307 309 311 312 312 312 311 310 311 311 312 312 313 312 311 310 309 308 307 305 302 298 294 290 287 286 285 285 286 286 287 288 289 290 291 293 294 296
291 291 291 291 292 292 292 292 292 293 293 293 293 293 293 293 293 293 293 293 293 293 293 292 292 291 290 289 288 288 287 287 287 288 289 291 292 293 294 295 296 297 298 299 300 302 303 305 307 309 310 311 311 311 310 310 310 311 311 312 312 312 311 310 309 308 307 305 302 299 295 290 286 284 283 283 283 284 284 285 286 287 288 289 291 292
290 291 291 291 291 291 292 292 292 292 292 293 293 293 293 292 292 292 292 292 292 292 291 291 290 289 288 287 286 286 286 286 287 288 289 290 292 293 294 295 295 296 297 298 300 301 303 305 306 308 310 310 310 310 309 309 310 310 311 311 311 311 310 310 308 307 306 305 302 299 295 291 286 283 281 280 281 281 281 282 283 284 285 286 287 288
290 291 291 291 291 291 292 292 292 292 292 292 292 292 292 292 292 292 291 291 291 291 290 289 288 287 286 285 285 285 285 285 286 287 289 290 292 293 293 294 295 296 297 298 299 301 303 304 306 308 309 310 310 309 309 309 309 310 310 311 311 311 310 309 308 307 306 305 302 299 295 291 286 282 280 278 278 278 279 279 280 280 281 282 283 284
290 290 291 291 291 291 291 291 291 292 292 292 291 291 291 291 291 291 290 290 290 289 288 287 286 285 284 284 283 283 284 285 286 287 289 290 292 292 293 294 294 295 296 297 299 300 302 304 306 307 308 309 309 308 308 308 309 309 310 310 311 310 310 309 308 307 306 305 302 300 296 291 286 282 279 277 276 276 276 277 277 277 278 279 280 280
290 290 290 290 291 291 291 291 291 291 291 291 290 290 290 290 290 290 289 289 288 287 286 285 284 283 282 282 282 282 283 284 285 287 289 290 291 292 292 293 294 294 295 297 298 300 302 304 305 307 308 308 308 308 308 308 308 309 309 310 310 310 310 309 308 307 306 305 303 300 296 292 287 282 278 275 274 274 274 274 274 275 275 276 276 277
290 290 290 290 290 290 290 290 290 290 290 290 289 289 289 289 289 289 288 288 287 286 285 283 282 281 281 281 281 281 282 284 285 287 289 290 291 291 292 292 293 294 295 296 298 300 302 303 305 306 307 308 308 307 307 307 308 308 309 310 310 310 310 309 308 307 306 305 303 300 297 292 287 282 278 274 273 272 272 272 272 272 272 272 273 274
289 289 290 290 290 290 290 290 290 290 289 289 289 289 288 288 288 288 287 287 286 284 283 281 280 279 279 279 280 281 282 284 286 287 288 289 290 290 291 291 292 293 294 296 298 300 302 303 305 306 307 307 307 306 306 307 307 308 309 309 310 310 310 309 308 308 307 306 303 301 297 293 288 282 278 274 271 270 270 270 270 270 270 270 270 270
289 289 289 289 289 289 289 289 289 289 289 288 288 288 288 288 287 287 286 285 284 283 281 280 279 278 278 278 279 281 283 284 286 287 288 289 289 289 290 291 291 292 294 296 298 300 302 303 305 305 306 306 306 306 306 306 307 308 308 309 310 310 310 309 308 308 307 306 304 301 298 293 288 283 278 274 271 269 268 268 268 268 268 268 268 268
288 289 289 289 289 289 289 289 288 288 288 288 288 287 287 287 287 286 285 283 282 280 279 278 277 277 277 278 279 281 283 285 286 287 288 288 288 289 289 290 291 292 294 296 298 300 302 303 304 305 305 305 305 305 305 306 306 307 308 309 309 310 309 309 308 307 307 306 304 302 298 294 289 284 279 274 271 268 267 267 267 267 266 266 266 266
288 288 288 288 288 288 288 288 288 287 287 287 287 287 287 286 285 284 283 282 280 279 277 276 276 276 277 278 279 281 283 285 286 287 287 287 288 288 289 290 291 293 294 296 298 300 302 303 304 304 305 305 304 304 305 305 306 307 308 308 309 309 309 308 308 307 306 305 304 302 298 294 290 285 280 275 271 268 266 266 265 266 266 265 265 264
287 288 288 288 288 287 287 287 287 287 287 286 286 286 285 285 284 283 281 279 278 277 276 274 274 275 276 278 280 282 283 285 286 286 287 287 287 288 288 290 291 293 295 296 298 300 301 303 303 304 304 304 304 304 304 304 305 306 307 308 308 309 308 308 307 307 306 305 304 301 298 295 290 286 281 276 272 268 266 265 265 264 264 264 264 263
287 287 287 287 287 287 287 286 286 286 286 285 285 284 284 283 282 281 279 277 276 275 273 272 273 274 277 279 281 282 284 285 285 286 286 286 287 287 288 289 291 293 295 296 298 300 301 302 303 303 303 303 303 303 303 304 305 306 307 307 308 308 308 307 307 306 306 304 303 301 298 295 291 287 282 277 273 269 266 265 264 264 263 264 263 263
286 286 286 286 286 286 286 286 285 285 285 284 284 283 282 281 280 279 277 275 274 272 271 271 271 274 277 279 281 282 283 284 285 285 285 286 286 287 288 289 291 293 295 297 298 300 301 302 302 302 302 302 302 302 303 303 304 305 306 307 307 307 307 307 306 305 305 304 302 300 298 295 292 288 284 279 275 271 267 265 264 263 263 263 263 263
285 285 285 285 285 285 285 284 284 284 284 283 282 281 281 280 278 277 275 273 271 270 270 270 272 274 277 279 281 282 283 284 284 284 285 285 285 286 288 289 291 293 295 297 298 299 300 301 301 301 301 301 301 301 302 303 304 305 306 306 307 307 306 306 305 305 304 303 302 300 297 295 292 289 285 281 277 273 269 267 265 264 263 263 263 263
284 284 284 284 284 284 283 283 283 282 282 281 281 280 279 278 276 275 273 271 270 269 270 271 274 276 277 279 281 282 282 283 283 284 284 284 285 286 288 290 291 293 295 297 298 299 300 300 300 300 300 300 301 301 302 303 304 304 305 306 306 306 306 305 305 304 304 303 301 299 296 294 292 289 286 283 279 275 272 269 266 265 264 263 263 263
283 283 283 283 283 283 282 282 282 281 280 280 279 278 277 276 274 272 271 270 270 270 272 273 275 277 278 280 281 281 282 282 282 283 283 284 285 286 288 290 292 294 296 297 298 299 299 300 300 300 300 300 300 301 301 302 303 304 305 306 306 306 305 305 304 304 303 302 300 298 295 293 291 289 287 284 281 277 274 271 269 267 265 264 264 263
282 282 282 282 282 281 281 281 281 280 279 278 277 276 275 273 272 270 270 270 271 272 274 275 277 278 279 280 281 281 281 281 282 282 283 284 285 287 289 291 293 295 296 297 298 299 299 299 299 299 299 299 300 300 301 302 303 304 304 305 305 305 304 304 303 303 302 301 299 297 294 292 290 288 286 284 282 279 276 274 271 269 267 266 265 264
281 282 282 281 281 281 280 280 279 279 278 277 275 274 272 271 270 269 270 271 272 274 275 277 278 279 280 280 280 280 280 280 281 282 283 284 285 288 290 292 294 295 296 297 298 298 298 299 298 298 298 299 299 300 300 301 302 303 304 304 304 304 304 303 303 302 301 300 298 296 293 291 289 288 286 284 283 280 278 275 273 271 269 267 266 265
281 281 281 281 280 280 279 279 278 277 276 275 273 272 271 270 269 270 271 272 274 275 276 277 278 279 279 279 279 279 279 279 280 282 283 284 286 289 291 293 294 296 296 297 298 298 298 298 298 298 298 298 299 299 300 301 302 303 303 304 304 303 303 303 302 301 301 299 297 295 292 290 288 287 285 284 282 281 279 276 274 272 270 269 268 266
280 280 280 280 279 279 278 277 276 275 274 273 271 271 270 270 270 271 272 273 274 275 276 277 278 278 278 278 278 278 279 279 280 282 284 286 288 290 292 294 295 296 296 297 297 297 297 297 297 297 297 298 298 299 300 301 302 302 303 303 303 303 302 302 301 301 300 298 296 294 291 289 287 286 285 283 282 281 279 277 276 274 272 270 269 268
279 279 279 279 278 277 276 275 274 273 272 271 270 270 270 270 270 271 272 273 274 275 276 277 277 277 277 277 278 278 279 280 281 283 285 287 289 291 293 294 295 296 296 297 297 297 296 296 296 296 297 297 298 299 300 301 301 302 303 303 303 302 302 301 301 300 299 298 295 293 290 288 286 285 284 283 282 281 279 278 277 275 273 272 270 269
278 278 278 277 276 275 274 273 272 271 270 270 269 269 270 270 271 271 273 273 274 275 275 276 276 276 276 277 277 278 280 282 284 285 287 289 291 292 293 294 295 296 296 296 296 296 296 295 296 296 296 297 298 299 299 300 301 302 302 302 302 302 301 301 300 300 299 297 295 292 290 287 286 284 283 282 282 281 280 278 277 276 275 273 272 271
277 277 276 276 275 273 272 271 270 269 269 269 269 269 270 270 271 272 272 273 274 274 274 274 274 275 276 277 278 280 282 284 286 287 289 290 291 292 293 294 295 295 295 295 295 295 295 295 295 296 296 297 298 299 299 300 301 301 302 302 301 301 300 300 300 299 298 296 294 292 289 287 286 284 283 283 282 281 280 279 278 277 276 274 273 272
276 275 275 274 273 271 270 269 269 269 268 268 269 269 270 270 271 272 272 273 273 273 273 274 274 275 276 278 279 281 284 285 287 288 290 291 292 293 293 294 295 295 295 295 294 294 294 294 295 295 296 297 298 299 299 300 301 301 301 301 300 300 300 299 299 298 297 295 293 291 289 287 286 285 284 283 282 281 280 280 279 278 277 276 274 273
274 274 273 272 271 270 269 268 268 268 268 268 268 269 270 270 271 272 272 273 273 273 274 274 275 276 278 279 281 283 285 286 288 289 291 292 292 293 293 294 294 294 294 294 294 294 294 294 294 295 296 297 298 299 299 300 300 300 300 300 300 299 299 299 298 297 296 294 292 290 288 287 286 285 284 283 283 282 281 280 279 278 277 276 275 274
272 272 271 270 269 268 268 268 268 268 268 268 268 269 270 270 271 272 272 273 273 274 275 276 277 278 280 281 283 284 286 287 289 290 291 292 292 293 294 294 293 293 293 293 293 293 293 294 294 295 296 297 298 298 299 299 300 300 300 299 299 299 298 298 297 296 295 293 291 289 288 286 286 285 284 284 283 283 282 281 280 279 278 277 276 276
270 270 268 268 267 267 267 267 267 267 268 268 269 269 270 271 271 272 273 274 274 275 276 278 279 280 281 283 284 286 287 288 290 291 291 292 292 293 293 293 293 292 292 292 292 293 293 294 294 295 296 297 297 298 299 299 299 299 299 299 298 298 298 297 297 296 294 292 290 289 287 286 285 285 284 284 284 283 282 282 281 280 279 278 277 276
269 268 267 267 267 267 267 267 267 268 268 269 269 270 271 272 272 273 274 275 276 277 279 280 281 282 283 284 285 287 288 289 290 291 292 292 292 292 292 292 292 291 291 291 292 292 293 294 295 295 296 297 297 298 298 298 298 298 298 298 298 297 297 297 296 295 293 292 290 288 287 286 285 285 284 284 284 284 283 282 282 281 280 279 278 277
267 267 266 266 266 267 267 268 268 268 269 270 271 272 273 274 275 275 276 277 278 279 280 281 282 283 284 285 286 287 288 289 290 291 292 292 292 291 291 291 291 291 291 291 291 292 293 294 295 295 296 297 297 298 298 298 298 298 298 298 297 297 297 296 296 294 293 291 289 288 286 286 285 285 284 284 284 284 283 283 282 281 280 280 279 278
266 266 266 266 267 267 268 269 269 270 271 272 273 274 275 276 277 277 278 279 280 281 281 282 283 284 285 286 287 288 289 290 290 291 291 291 291 290 290 290 290 290 291 291 292 292 293 294 294 295 296 296 297 297 297 297 297 297 297 297 297 297 296 296 295 294 292 291 289 288 287 286 285 285 285 284 284 284 284 283 282 282 281 280 279 279
266 266 266 267 267 268 269 270 271 272 273 274 275 276 277 278 278 279 279 280 281 282 283 283 284 285 286 287 288 289 289 290 290 290 290 290 289 289 289 289 290 290 291 292 292 293 293 294 295 295 296 296 296 296 296 296 297 297 297 297 297 296 296 295 294 293 292 290 289 288 287 286 285 285 285 285 284 284 284 283 283 282 282 281 280 279
266 266 267 267 268 269 270 271 273 274 275 276 277 278 278 279 279 279 280 281 282 282 283 284 285 286 286 287 288 289 290 290 290 289 289 289 289 289 289 289 290 291 291 292 293 293 294 294 295 295 296 296 296 296 296 296 296 296 296 296 296 296 295 294 293 292 291 290 289 287 287 286 286 285 285 285 285 284 284 284 283 283 282 282 281 280
267 267 268 269 270 271 272 273 274 275 276 277 278 278 279 279 280 280 281 282 282 283 284 285 285 286 287 288 289 289 289 289 289 288 288 288 288 289 289 290 290 291 292 292 293 293 294 294 295 295 295 295 295 295 296 296 296 296 296 296 296 295 294 293 292 291 290 289 288 287 286 286 286 286 285 285 285 285 284 284 284 283 283 282 282 281
269 270 271 272 273 273 274 275 276 276 277 278 278 279 279 280 281 281 282 283 283 284 285 286 287 288 288 288 288 288 288 288 288 288 288 288 288 289 289 290 291 291 292 292 293 293 294 294 295 295 295 295 295 295 295 295 295 296 295 295 295 294 294 293 292 291 290 288 288 287 286 286 286 286 286 285 285 285 285 284 284 284 283 283 282 281
272 272 273 274 275 275 276 276 277 277 278 278 279 279 280 281 281 282 283 283 284 285 286 287 287 288 288 288 287 287 287 287 287 287 288 288 289 289 290 290 291 292 292 292 293 293 294 294 294 294 295 295 295 294 294 295 295 295 295 295 294 293 293 292 291 290 289 288 288 287 286 286 286 286 286 286 285 285 285 285 285 284 284 283 283 282
274 275 275 276 276 276 277 277 277 278 279 279 280 280 280 281 282 283 283 284 285 286 286 287 287 287 286 286 286 286 286 286 287 287 288 288 289 290 290 291 291 292 292 292 293 293 293 294 294 294 294 294 294 294 294 294 294 294 294 294 293 293 292 291 290 290 289 288 287 287 287 286 286 286 286 286 286 285 285 285 285 284 284 284 283 283
276 276 276 277 277 277 277 278 278 279 279 280 280 281 281 282 283 284 284 285 285 285 285 285 285 285 285 285 286 286 286 286 287 288 288 289 289 290 290 291 291 292 292 292 293 293 293 293 294 294 294 294 294 294 294 294 294 294 294 293 293 292 291 290 290 289 289 288 288 287 287 287 286 286 286 286 286 286 285 285 285 285 284 284 284 283
277 277 277 277 278 278 278 279 279 280 280 281 281 282 283 283 284 284 284 284 284 284 284 285 285 285 285 285 285 286 286 287 287 288 288 289 290 290 290 291 291 292 292 292 292 293 293 293 293 293 294 294 294 294 294 294 294 293 293 292 292 291 291 290 289 289 289 288 288 288 287 287 287 287 287 286 286 286 286 285 285 285 284 284 284 283
278 278 278 278 279 279 280 280 281 281 282 282 282 283 283 283 283 284 284 284 284 284 284 284 284 284 285 285 285 286 286 287 288 288 289 289 290 290 291 291 291 292 292 292 292 292 293 293 293 293 293 294 294 294 294 294 293 293 293 292 291 291 290 290 290 289 289 288 288 288 288 288 287 287 287 287 286 286 286 286 285 285 285 284 284 284
278 279 279 279 280 280 281 281 282 282 282 283 283 283 283 283 283 283 283 284 284 284 284 284 284 284 285 285 285 286 286 287 288 288 289 289 290 290 290 291 291 291 292 292 292 292 292 293 293 293 293 293 293 293 293 293 293 293 292 292 291 291 290 290 290 290 289 289 289 288 288 288 288 288 287 287 287 286 286 286 286 285 285 284 284 284
279 279 280 280 281 281 281 282 282 282 283 283 283 283 283 283 283 284 284 284 284 284 284 284 285 285 285 285 286 286 287 287 288 288 289 289 290 290 290 290 291 291 291 291 292 292 292 292 293 293 293 293 293 293 293 293 293 292 292 292 291 291 290 290 290 290 290 289 289 289 289 288 288 288 288 287 287 287 286 286 286 285 285 285 284 284
279 280 280 280 281 281 281 282 282 282 283 283 283 283 283 283 284 284 284 284 284 284 285 285 285 286 286 286 287 287 288 288 288 289 289 289 290 290 290 290 290 291 291 291 291 292 292 292 292 292 293 293 292 292 292 292 292 292 292 291 291 291 291 290 290 290 290 289 289 289 289 289 288 288 288 287 287 287 287 286 286 286 286 285 285 284
280 280 280 280 281 281 281 282 282 282 283 283 283 283 283 284 284 284 284 284 284 285 285 286 286 286 286 287 287 287 288 288 288 289 289 289 289 290 290 290 290 291 291 291 291 292 292 292 292 292 292 292 292 292 292 292 292 292 291 291 291 291 291 290 290 290 290 289 289 289 289 289 289 288 288 288 287 287 287 287 286 286 286 286 285 285
280 280 280 281 281 281 281 282 282 282 282 283 283 283 283 283 284 284 284 285 285 285 286 286 286 287 287 287 287 288 288 288 288 288 289 289 289 289 290 290 290 291 291 291 291 291 291 291 291 291 291 291 292 292 292 292 292 291 291 291 291 291 290 290 290 290 290 289 289 289 289 289 289 288 288 288 288 287 287 287 287 286 286 286 286 285
280 280 280 281 281 281 281 282 282 282 282 282 282 283 283 283 284 284 284 285 285 286 286 286 286 287 287 287 288 288 288 288 288 288 289 289 289 289 290 290 290 290 291 291 291 291 291 291 291 291 291 291 291 291 291 291 291 291 291 291 290 290 290 290 290 290 290 290 289 289 289 289 289 288 288 288 288 288 288 287 287 287 286 286 286 285
280 280 281 281 281 281 281 281 282 282 282 282 283 283 283 284 284 285 285 285 286 286 286 287 287 287 287 288 288 288 288 288 288 289 289 289 289 289 290 290 290 290 291 291 291 291 291 291 290 290 290 290 290 291 291 291 291 291 290 290 290 290 290 290 290 290 290 289 289 289 289 289 289 289 288 288 288 288 288 287 287 287 286 286 286 285
281 281 281 281 281 282 282 282 282 282 283 283 284 284 284 285 285 286 286 286 287 287 287 287 288 288 288 288 288 288 289 289 289 289 289 289 290 290 290 290 290 290 290 291 290 290 291 290 290 290 290 290 290 290 290 290 290 290 290 290 290 290 290 290 290 290 289 289 289 289 289 289 289 289 288 288 288 288 287 287 287 286 286 286 285 285
Height
10536 10534 10533 10531 10530 10528 10526 10525 10524 10522 10520 10518 10516 10515 10513 10511 10510 10508 10506 10505 10503 10501 10500 10498 10497 10496 10495 10493 10493 10492 10491 10490 10490 10489 10488 10487 10486 10486 10485 10484 10483 10482 10481 10480 10479 10478 10477 10476 10475 10473 10472 10471 10469 10468 10466 10465 10463 10461 10460 10458 10457 10456 10455 10453 10451 10450 10449 10448 10447 10446 10445 10444 10443 10442 10441 10440 10440 10438 10437 10436 10435 10434 10433 10432 10431 10430
10530 10528 10526 10526 10525 10523 10520 10518 10518 10516 10515 10513 10511 10510 10508 10506 10504 10503 10501 10500 10498 10496 10495 10493 10492 10491 10490 10489 10488 10488 10487 10486 10486 10485 10485 10483 10483 10482 10481 10480 10479 10478 10477 10476 10475 10474 10473 10472 10471 10470 10469 10467 10466 10465 10463 10461 10460 10458 10457 10456 10455 10453 10451 10450 10449 10448 10446 10445 10444 10443 10442 10441 10441 10440 10439 10438 10437 10436 10435 10435 10433 10433 10431 10431 10430 10429
10523 10522 10520 10520 10518 10516 10515 10513 10511 10510 10509 10507 10505 10504 10502 10500 10498 10497 10496 10495 10493 10492 10491 10489 10488 10486 10486 10485 10485 10484 10483 10483 10482 10481 10481 10480 10480 10478 10478 10476 10476 10475 10474 10473 10471 10470 10470 10468 10468 10466 10465 10464 10463 10461 10460 10458 10457 10455 10454 10453 10451 10450 10449 10448 10446 10445 10443 10442 10441 10440 10440 10439 10438 10438 10436 10436 10435 10434 10433 10433 10431 10431 10430 10429 10428 10428
10517 10516 10515 10513 10512 10510 10508 10507 10505 10504 10503 10501 10500 10498 10496 10495 10493 10491 10490 10490 10488 10487 10486 10485 10483 10482 10481 10481 10480 10480 10479 10479 10478 10478 10477 10476 10476 10475 10474 10473 10473 10471 10470 10470 10468 10467 10466 10465 10464 10463 10462 10461 10460 10458 10456 10455 10454 10453 10451 10450 10448 10447 10446 10445 10443 10442 10441 10440 10438 10437 10436 10436 10435 10435 10434 10433 10433 10432 10431 10430 10430 10429 10428 10428 10426 10426
10511 10510 10509 10508 10506 10504 10502 10501 10500 10498 10496 10495 10494 10493 10491 10490 10488 10486 10485 10485 10483 10483 10481 10480 10479 10478 10477 10476 10476 10476 10475 10475 10475 10474 10473 10473 10472 10471 10471 10470 10469 10468 10467 10466 10465 10464 10463 10461 10461 10460 10458 10457 10456 10455 10453 10452 10451 10450 10448 10446 10445 10444 10443 10441 10440 10439 10438 10436 10435 10434 10433 10433 10432 10431 10431 10431 10430 10430 10429 10428 10428 10427 10426 10426 10425 10425
10505 10504 10503 10501 10500 10498 10496 10495 10494 10493 10491 10490 10488 10487 10485 10484 10483 10481 10480 10480 10479 10478 10477 10476 10475 10474 10473 10473 10472 10471 10471 10471 10471 10470 10470 10469 10468 10468 10467 10466 10465 10465 10463 10463 10461 10460 10460 10458 10457 10456 10455 10454 10453 10451 10450 10449 10448 10446 10445 10443 10442 10441 10440 10438 10437 10436 10435 10433 10432 10431 10430 10430 10429 10428 10428 10428 10428 10427 10426 10426 10425 10425 10425 10424 10423 10423
10498 10498 10497 10495 10494 10492 10491 10490 10488 10487 10486 10485 10483 10481 10480 10479 10478 10476 10475 10475 10474 10473 10473 10471 10471 10470 10470 10469 10468 10468 10468 10467 10466 10466 10466 10465 10465 10464 10463 10463 10462 10461 10460 10459 10458 10457 10456 10455 10454 10453 10451 10450 10449 10448 10446 10445 10444 10443 10441 10440 10439 10438 10436 10435 10434 10433 10431 10430 10428 10428 10426 10426 10425 10425 10425 10425 10425 10424 10424 10423 10423 10423 10422 10421 10421 10421
10492 10491 10490 10490 10488 10486 10485 10485 10483 10482 10481 10480 10478 10476 10475 10473 10473 10471 10471 10470 10470 10469 10468 10468 10466 10466 10466 10465 10465 10464 10464 10463 10463 10463 10462 10461 10461 10460 10460 10459 10458 10457 10456 10455 10455 10453 10453 10451 10450 10449 10448 10446 10445 10445 10443 10442 10441 10440 10438 10437 10436 10434 10433 10431 10430 10429 10428 10426 10425 10424 10423 10422 10422 10421 10421 10421 10421 10421 10421 10421 10420 10420 10420 10420 10419 10419
10486 10485 10484 10483 10482 10481 10480 10478 10478 10477 10476 10475 10473 10471 10470 10468 10468 10467 10466 10466 10465 10465 10464 10463 10463 10462 10461 10461 10461 10460 10460 10460 10460 10459 10458 10458 10457 10456 10456 10455 10455 10454 10453 10452 10451 10450 10449 10448 10446 10446 10445 10443 10442 10441 10440 10438 10437 10436 10435 10433 10432 10431 10430 10428 10426 10425 10424 10423 10421 10420 10420 10419 10418 10418 10418 10418 10418 10418 10418 10418 10418 10418 10417 10417 10417 10416
10481 10480 10478 10477 10476 10476 10475 10473 10472 10471 10471 10470 10468 10466 10465 10464 10463 10463 10462 10461 10461 10460 10460 10460 10459 10458 10458 10458 10457 10457 10456 10456 10456 10455 10455 10455 10454 10453 10453 10452 10451 10450 10449 10448 10447 10446 10445 10444 10443 10442 10441 10440 10438 10437 10436 10435 10433 10432 10431 10430 10428 10427 10426 10425 10423 10421 10420 10419 10418 10417 10416 10415 10415 10414 10414 10414 10414 10415 10415 10415 10415 10415 10415 10415 10415 10415
10475 10474 10473 10471 10471 10470 10469 10468 10467 10466 10465 10464 10462 10461 10460 10460 10459 10458 10458 10456 10456 10456 10456 10455 10455 10455 10454 10453 10453 10453 10453 10453 10452 10451 10451 10451 10450 10450 10449 10448 10447 10446 10445 10445 10444 10443 10441 10441 10440 10438 10437 10436 10435 10433 10432 10431 10430 10428 10427 10426 10425 10423 10422 10421 10419 10418 10416 10415 10414 10413 10412 10411 10411 10410 10410 10410 10410 10411 10411 10411 10411 10411 10411 10411 10411 10411
10469 10468 10467 10466 10465 10465 10463 10463 10462 10461 10460 10459 10457 10456 10455 10455 10455 10454 10453 10453 10452 10451 10451 10451 10451 10451 10451 10450 10450 10449 10449 10449 10448 10448 10448 10447 10447 10446 10446 10445 10444 10443 10442 10441 10440 10439 10438 10437 10436 10435 10433 10432 10431 10430 10428 10427 10426 10425 10424 10422 10421 10420 10418 10417 10416 10414 10413 10411 10410 10410 10408 10408 10407 10406 10406 10406 10406 10407 10407 10408 10408 10408 10408 10408 10409 10409
10463 10463 10462 10461 10460 10459 10458 10458 10456 10456 10455 10453 10453 10451 10451 10450 10450 10450 10449 10448 10448 10448 10448 10447 10446 10446 10446 10446 10446 10446 10445 10445 10445 10445 10444 10443 10443 10443 10442 10441 10440 10439 10438 10437 10436 10435 10435 10433 10432 10431 10430 10428 10427 10426 10425 10423 10423 10421 10420 10419 10417 10416 10415 10413 10412 10411 10410 10408 10407 10406 10405 10404 10403 10403 10403 10403 10403 10403 10403 10404 10404 10405 10405 10405 10405 10406
10458 10457 10456 10456 10455 10454 10453 10452 10451 10450 10450 10449 10448 10447 10446 10446 10446 10445 10445 10445 10444 10444 10443 10443 10443 10442 10443 10443 10443 10442 10442 10441 10441 10440 10440 10440 10440 10439 10438 10437 10436 10435 10435 10433 10433 10431 10431 10430 10428 10426 10425 10425 10423 10422 10421 10420 10419 10418 10416 10415 10414 10412 10411 10410 10408 10407 10406 10405 10403 10402 10401 10400 10400 10399 10399 10399 10399 10399 10400 10400 10400 10401 10401 10401 10402 10402
10452 10452 10451 10450 10450 10449 10448 10447 10446 10446 10445 10444 10443 10443 10442 10442 10441 10441 10441 10440 10440 10440 10440 10439 10439 10438 10438 10438 10438 10438 10438 10438 10437 10436 10436 10436 10436 10436 10435 10434 10432 10431 10431 10430 10429 10428 10427 10426 10425 10423 10421 10421 10420 10418 10417 10416 10415 10414 10413 10411 10410 10409 10408 10406 10405 10403 10402 10401 10400 10399 10398 10397 10396 10396 10395 10395 10395 10395 10396 10396 10396 10397 10398 10398 10398 10399
10447 10446 10446 10445 10444 10443 10443 10442 10441 10441 10440 10440 10439 10438 10438 10438 10437 10437 10437 10436 10436 10436 10436 10435 10435 10435 10434 10435 10435 10435 10435 10434 10433 10433 10432 10431 10431 10431 10431 10430 10428 10428 10427 10426 10425 10424 10423 10422 10421 10420 10418 10417 10416 10415 10413 10413 10411 10410 10409 10408 10406 10405 10404 10403 10401 10400 10399 10398 10396 10395 10395 10393 10393 10392 10391 10391 10391 10391 10392 10392 10393 10393 10394 10394 10395 10395
10442 10441 10441 10440 10440 10438 10438 10438 10437 10436 10436 10435 10435 10435 10434 10433 10433 10433 10433 10433 10433 10432 10432 10431 10431 10431 10430 10430 10430 10431 10431 10430 10430 10429 10428 10428 10427 10428 10427 10426 10425 10423 10423 10423 10421 10421 10420 10418 10417 10416 10415 10413 10412 10411 10410 10409 10408 10406 10405 10404 10403 10401 10400 10399 10398 10396 10395 10394 10393 10391 10391 10390 10389 10389 10388 10388 10388 10388 10388 10388 10389 10390 10390 10390 10391 10391
10437 10436 10436 10435 10435 10434 10433 10433 10432 10431 10431 10431 10430 10430 10430 10430 10429 10429 10428 10428 10428 10428 10428 10428 10428 10428 10427 10426 10426 10426 10428 10427 10426 10425 10425 10424 10423 10423 10423 10423 10421 10420 10420 10419 10418 10417 10416 10415 10413 10412 10411 10410 10408 10407 10406 10405 10404 10403 10401 10400 10399 10398 10396 10395 10394 10393 10391 10390 10389 10388 10387 10386 10386 10385 10385 10385 10385 10385 10385 10385 10385 10386 10386 10386 10387 10387
10431 10431 10431 10430 10430 10430 10429 10428 10428 10427 10427 10426 10426 10426 10425 10425 10425 10425 10425 10425 10425 10425 10425 10424 10424 10423 10423 10423 10423 10423 10424 10423 10423 10421 10421 10420 10419 10419 10419 10419 10418 10416 10416 10415 10414 10413 10412 10411 10410 10408 10407 10406 10405 10403 10402 10401 10400 10398 10397 10396 10395 10393 10392 10391 10390 10389 10388 10386 10385 10385 10384 10383 10382 10381 10381 10381 10381 10381 10381 10381 10381 10381 10382 10383 10383 10383
10426 10426 10426 10426 10425 10425 10425 10424 10423 10423 10423 10423 10422 10422 10421 10421 10421 10421 10420 10420 10421 10421 10421 10420 10420 10420 10420 10419 10419 10420 10420 10420 10419 10418 10416 10416 10415 10415 10415 10415 10414 10413 10411 10411 10410 10409 10408 10406 10405 10405 10403 10402 10401 10400 10398 10397 10396 10395 10393 10392 10391 10390 10388 10387 10386 10385 10384 10383 10381 10381 10380 10380 10379 10378 10378 10377 10377 10377 10377 10377 10378 10378 10378 10378 10379 10380
10421 10421 10421 10421 10421 10420 10420 10420 10420 10419 10419 10419 10418 10418 10417 10417 10417 10416 10416 10416 10416 10416 10416 10416 10416 10415 10415 10415 10415 10415 10416 10416 10415 10413 10413 10411 10410 10410 10411 10411 10410 10408 10407 10406 10405 10405 10404 10403 10401 10400 10399 10398 10396 10395 10395 10393 10392 10391 10390 10388 10386 10385 10384 10383 10382 10381 10380 10379 10378 10377 10376 10376 10375 10375 10374 10374 10373 10373 10373 10373 10373 10374 10374 10375 10375 10375
10417 10416 10416 10416 10416 10416 10415 10415 10415 10415 10415 10415 10415 10414 10413 10413 10413 10413 10413 10413 10413 10413 10413 10412 10411 10411 10411 10411 10411 10411 10411 10411 10411 10410 10408 10407 10406 10406 10406 10406 10406 10404 10403 10401 10401 10400 10400 10398 10397 10396 10395 10394 10393 10391 10390 10389 10388 10386 10385 10384 10383 10381 10380 10379 10378 10376 10376 10375 10374 10373 10373 10372 10371 10371 10370 10370 10370 10370 10370 10370 10370 10370 10370 10370 10371 10371
10412 10412 10412 10412 10412 10411 10411 10411 10411 10411 10411 10411 10410 10410 10410 10410 10410 10410 10409 10410 10409 10409 10408 10408 10408 10408 10407 10407 10406 10406 10407 10407 10406 10406 10405 10403 10402 10401 10402 10402 10401 10400 10398 10397 10396 10396 10395 10394 10393 10391 10390 10390 10388 10387 10386 10385 10383 10382 10381 10380 10378 10377 10376 10375 10373 10373 10371 10371 10370 10370 10369 10368 10368 10367 10366 10366 10366 10366 10365 10365 10365 10365 10366 10366 10366 10366
10408 10408 10408 10408 10408 10408 10407 10407 10407 10407 10407 10407 10407 10406 10406 10406 10406 10406 10406 10406 10406 10405 10405 10405 10404 10403 10403 10403 10402 10402 10402 10402 10402 10401 10400 10400 10398 10398 10398 10398 10396 10395 10393 10393 10392 10391 10390 10389 10388 10387 10386 10385 10383 10383 10381 10380 10379 10378 10376 10375 10374 10373 10371 10370 10369 10368 10367 10366 10366 10365 10365 10364 10363 10363 10363 10362 10362 10361 10361 10361 10361 10361 10361 10361 10361 10362
10404 10404 10404 10404 10404 10404 10403 10403 10403 10403 10403 10403 10403 10403 10403 10403 10403 10403 10403 10402 10402 10401 10401 10400 10400 10399 10398 10398 10398 10397 10397 10398 10398 10398 10396 10396 10395 10394 10393 10393 10392 10390 10389 10388 10388 10386 10385 10385 10383 10383 10381 10380 10379 10378 10376 10375 10375 10373 10372 10371 10369 10368 10366 10365 10365 10363 10363 10362 10361 10361 10360 10360 10360 10359 10358 10358 10358 10358 10357 10357 10357 10356 10356 10357 10357 10357
10400 10400 10400 10400 10400 10400 10400 10400 10400 10400 10400 10400 10400 10399 10399 10399 10399 10398 10398 10398 10398 10397 10396 10396 10395 10395 10394 10394 10393 10393 10393 10393 10393 10393 10393 10391 10390 10389 10388 10388 10388 10386 10384 10383 10383 10382 10381 10380 10378 10378 10376 10375 10375 10373 10372 10371 10370 10368 10367 10366 10365 10363 10362 10361 10360 10359 10358 10357 10356 10356 10356 10355 10355 10355 10354 10354 10353 10353 10353 10353 10352 10352 10352 10352 10352 10352
10396 10396 10396 10396 10396 10396 10396 10396 10396 10396 10396 10396 10396 10396 10395 10395 10395 10394 10393 10393 10393 10393 10393 10392 10391 10390 10390 10390 10389 10388 10388 10388 10389 10389 10389 10388 10386 10385 10383 10383 10383 10381 10380 10378 10378 10377 10376 10375 10373 10373 10372 10371 10370 10368 10367 10366 10365 10363 10363 10361 10360 10359 10358 10356 10355 10355 10353 10353 10352 10351 10351 10350 10350 10350 10350 10350 10349 10349 10348 10348 10348 10348 10347 10347 10347 10348
10392 10392 10392 10392 10392 10392 10392 10392 10392 10392 10392 10392 10392 10392 10391 10391 10391 10390 10389 10389 10389 10389 10388 10388 10387 10386 10386 10385 10385 10385 10385 10384 10384 10385 10385 10383 10381 10380 10379 10379 10378 10376 10375 10373 10373 10372 10371 10370 10369 10368 10367 10366 10365 10363 10362 10361 10360 10359 10358 10356 10355 10354 10353 10351 10351 10350 10349 10348 10347 10346 10346 10345 10345 10345 10345 10345 10344 10344 10343 10343 10343 10343 10343 10342 10342 10342
10388 10388 10388 10388 10388 10388 10388 10388 10388 10388 10388 10388 10388 10388 10388 10387 10386 10385 10385 10385 10385 10385 10383 10383 10383 10383 10382 10381 10381 10381 10380 10380 10380 10380 10380 10378 10376 10375 10375 10374 10373 10371 10371 10369 10367 10366 10366 10365 10364 10363 10362 10361 10360 10358 10357 10356 10355 10354 10353 10351 10350 10349 10348 10346 10346 10345 10344 10343 10343 10342 10341 10341 10340 10340 10340 10339 10339 10339 10338 10338 10338 10338 10338 10337 10337 10337
10385 10385 10385 10385 10385 10385 10385 10385 10385 10384 10384 10384 10384 10384 10383 10383 10382 10381 10381 10381 10380 10380 10380 10379 10379 10379 10379 10378 10378 10376 10375 10375 10375 10375 10375 10373 10371 10370 10370 10369 10368 10366 10366 10365 10362 10361 10360 10360 10360 10359 10357 10356 10355 10353 10352 10351 10350 10349 10348 10346 10345 10344 10343 10341 10341 10340 10339 10338 10338 10337 10336 10336 10335 10335 10334 10334 10333 10333 10333 10333 10333 10333 10332 10332 10332 10331
10380 10381 10380 10381 10381 10381 10381 10380 10380 10380 10380 10380 10380 10380 10379 10379 10378 10378 10377 10377 10376 10376 10376 10375 10375 10375 10375 10375 10373 10372 10370 10370 10370 10370 10370 10368 10366 10365 10365 10363 10362 10361 10361 10360 10358 10356 10354 10353 10353 10353 10353 10351 10350 10348 10347 10346 10345 10343 10343 10341 10340 10338 10338 10336 10335 10335 10334 10333 10333 10332 10331 10331 10330 10330 10329 10328 10328 10328 10328 10327 10327 10327 10326 10326 10326 10326
10376 10376 10376 10376 10376 10376 10376 10376 10376 10376 10376 10376 10376 10375 10375 10375 10374 10374 10373 10373 10373 10372 10372 10371 10371 10371 10371 10370 10370 10368 10366 10365 10365 10365 10365 10363 10361 10360 10360 10358 10357 10356 10356 10355 10354 10352 10350 10348 10348 10348 10347 10346 10345 10343 10341 10341 10340 10338 10337 10336 10335 10333 10332 10331 10330 10329 10328 10328 10327 10326 10326 10325 10325 10325 10324 10323 10323 10322 10322 10321 10321 10321 10321 10321 10321 10320
10372 10372 10372 10372 10372 10372 10372 10372 10372 10372 10372 10371 10371 10371 10371 10371 10371 10370 10370 10370 10370 10369 10368 10367 10366 10366 10366 10365 10365 10363 10362 10361 10360 10360 10360 10358 10356 10354 10354 10353 10352 10351 10350 10350 10348 10348 10346 10344 10343 10342 10341 10340 10340 10338 10336 10335 10334 10333 10332 10331 10329 10328 10326 10326 10325 10324 10323 10322 10321 10321 10321 10320 10320 10319 10318 10318 10317 10317 10316 10316 10315 10315 10315 10315 10315 10315
10368 10368 10368 10368 10368 10368 10368 10368 10368 10368 10368 10368 10368 10368 10367 10367 10367 10366 10366 10366 10365 10365 10364 10363 10363 10361 10361 10360 10359 10358 10357 10356 10355 10355 10354 10353 10351 10350 10348 10348 10346 10346 10345 10343 10343 10341 10340 10339 10338 10337 10335 10335 10334 10333 10331 10330 10329 10328 10326 10325 10324 10322 10321 10320 10319 10318 10317 10316 10316 10315 10315 10314 10314 10313 10313 10312 10311 10311 10311 10310 10310 10309 10309 10308 10308 10308
10364 10364 10364 10364 10364 10364 10364 10364 10364 10364 10364 10364 10364 10364 10364 10363 10363 10363 10362 10361 10361 10361 10360 10360 10358 10358 10356 10355 10354 10353 10351 10351 10350 10350 10349 10348 10346 10345 10343 10342 10341 10341 10340 10338 10336 10336 10334 10333 10332 10331 10330 10329 10328 10327 10326 10325 10323 10322 10321 10320 10319 10317 10316 10315 10314 10313 10312 10311 10310 10310 10309 10308 10308 10307 10307 10306 10306 10305 10305 10304 10303 10303 10303 10302 10302 10301
10360 10360 10360 10360 10360 10360 10360 10360 10360 10360 10360 10360 10360 10360 10360 10360 10359 10358 10358 10357 10356 10356 10355 10355 10354 10353 10352 10351 10350 10348 10346 10345 10345 10344 10343 10342 10341 10340 10338 10336 10336 10336 10334 10332 10331 10330 10328 10326 10326 10325 10325 10323 10322 10321 10320 10320 10318 10317 10316 10315 10313 10311 10310 10309 10308 10307 10306 10306 10305 10304 10303 10303 10302 10301 10301 10300 10300 10299 10298 10298 10297 10296 10296 10296 10295 10295
10356 10356 10356 10356 10356 10357 10357 10357 10357 10357 10357 10356 10356 10356 10356 10355 10355 10354 10353 10353 10352 10351 10350 10350 10349 10348 10347 10346 10345 10343 10341 10340 10339 10338 10337 10336 10335 10334 10333 10331 10330 10330 10329 10327 10325 10324 10323 10321 10320 10319 10318 10318 10316 10315 10314 10313 10313 10311 10310 10309 10308 10306 10305 10303 10303 10302 10301 10300 10299 10298 10298 10296 10296 10295 10295 10294 10293 10293 10292 10291 10291 10290 10290 10289 10288 10288
10353 10353 10353 10353 10354 10354 10354 10354 10354 10354 10353 10353 10353 10352 10351 10351 10350 10350 10349 10348 10347 10346 10345 10345 10343 10343 10341 10340 10340 10338 10336 10335 10334 10333 10331 10331 10330 10329 10328 10326 10325 10324 10324 10322 10320 10318 10317 10315 10314 10313 10311 10311 10311 10310 10309 10308 10307 10306 10305 10303 10302 10301 10299 10298 10297 10296 10296 10295 10294 10293 10292 10291 10290 10290 10288 10288 10287 10286 10286 10285 10285 10284 10283 10282 10281 10281
10350 10350 10350 10350 10351 10351 10351 10350 10350 10350 10350 10350 10349 10348 10348 10346 10346 10345 10344 10343 10342 10341 10340 10339 10338 10337 10336 10335 10333 10332 10331 10330 10328 10327 10326 10325 10325 10323 10322 10321 10319 10318 10318 10316 10315 10313 10311 10310 10308 10307 10306 10305 10304 10303 10303 10303 10301 10301 10299 10298 10296 10295 10293 10292 10291 10290 10290 10289 10288 10287 10286 10285 10285 10283 10283 10281 10281 10280 10279 10278 10278 10277 10276 10275 10275 10273
10347 10347 10347 10347 10347 10347 10347 10346 10346 10346 10346 10345 10345 10344 10343 10342 10341 10340 10340 10338 10338 10336 10335 10334 10333 10331 10330 10330 10328 10327 10326 10325 10323 10322 10321 10320 10319 10318 10317 10315 10314 10313 10311 10310 10309 10308 10306 10304 10302 10301 10300 10299 10298 10296 10296 10296 10296 10295 10294 10292 10290 10289 10288 10287 10286 10285 10284 10283 10282 10281 10280 10279 10278 10278 10276 10275 10275 10273 10273 10271 10271 10270 10270 10269 10268 10266
10344 10344 10343 10343 10343 10343 10343 10343 10342 10342 10341 10341 10340 10339 10338 10338 10336 10335 10335 10333 10333 10331 10330 10329 10327 10326 10325 10324 10323 10322 10321 10320 10318 10317 10316 10315 10313 10312 10311 10310 10308 10307 10306 10304 10303 10301 10300 10298 10296 10295 10294 10293 10291 10290 10290 10290 10289 10289 10288 10286 10285 10283 10282 10281 10280 10279 10278 10277 10276 10275 10274 10273 10272 10271 10270 10269 10268 10267 10266 10265 10264 10263 10263 10262 10261 10260
10340 10340 10339 10339 10339 10339 10338 10338 10338 10338 10337 10336 10335 10334 10333 10332 10331 10330 10329 10328 10326 10325 10325 10323 10322 10321 10320 10318 10318 10317 10316 10314 10313 10312 10311 10310 10308 10306 10305 10304 10303 10301 10300 10298 10296 10295 10294 10293 10291 10290 10288 10287 10285 10284 10283 10283 10283 10283 10282 10280 10279 10278 10276 10275 10275 10274 10272 10271 10270 10269 10268 10266 10265 10265 10263 10262 10261 10260 10259 10258 10258 10256 10256 10255 10254 10253
10336 10335 10335 10335 10335 10334 10334 10333 10333 10332 10331 10331 10330 10328 10328 10326 10325 10325 10323 10322 10321 10320 10319 10318 10317 10316 10315 10313 10312 10311 10311 10310 10308 10306 10305 10304 10303 10301 10300 10298 10297 10295 10294 10292 10290 10288 10288 10287 10286 10284 10282 10281 10280 10278 10276 10276 10276 10276 10275 10274 10273 10271 10270 10268 10268 10268 10266 10265 10263 10262 10261 10260 10259 10258 10256 10255 10254 10253 10252 10251 10251 10250 10249 10248 10247 10246
10331 10331 10331 10330 10330 10330 10329 10328 10328 10327 10326 10325 10324 10323 10321 10321 10320 10319 10318 10316 10315 10315 10313 10312 10311 10310 10309 10308 10307 10306 10305 10304 10303 10301 10300 10298 10297 10295 10294 10292 10291 10290 10288 10286 10285 10283 10281 10280 10279 10278 10276 10275 10273 10272 10271 10270 10270 10269 10268 10268 10266 10265 10263 10263 10261 10261 10259 10258 10256 10256 10255 10253 10252 10251 10250 10248 10247 10246 10245 10245 10243 10243 10242 10241 10240 10239
10327 10326 10326 10326 10325 10325 10323 10323 10322 10321 10320 10319 10318 10317 10316 10315 10315 10313 10312 10311 10310 10309 10308 10306 10306 10304 10303 10301 10301 10300 10300 10298 10297 10296 10295 10293 10291 10290 10288 10286 10285 10283 10282 10281 10279 10278 10276 10274 10272 10271 10270 10269 10268 10266 10265 10264 10263 10262 10261 10261 10260 10259 10258 10256 10256 10254 10252 10251 10250 10248 10248 10246 10245 10244 10242 10241 10240 10239 10238 10238 10236 10236 10235 10234 10233 10232
10323 10322 10321 10321 10320 10320 10318 10317 10316 10315 10315 10313 10313 10311 10311 10310 10309 10308 10306 10305 10304 10303 10301 10301 10300 10298 10296 10295 10295 10295 10293 10292 10291 10290 10289 10287 10286 10284 10283 10281 10280 10278 10276 10275 10273 10271 10270 10268 10266 10265 10263 10262 10261 10260 10259 10258 10257 10255 10254 10254 10253 10252 10251 10250 10249 10248 10246 10245 10243 10241 10241 10240 10238 10236 10235 10233 10233 10231 10231 10230 10230 10228 10228 10227 10226 10225
10318 10317 10316 10315 10315 10314 10313 10312 10311 10310 10309 10308 10307 10306 10305 10305 10303 10302 10301 10300 10299 10298 10296 10295 10294 10293 10291 10290 10289 10288 10287 10286 10285 10284 10283 10281 10280 10278 10276 10275 10273 10271 10270 10268 10266 10265 10263 10262 10261 10260 10258 10256 10254 10253 10252 10252 10251 10250 10248 10247 10246 10245 10244 10243 10241 10241 10240 10238 10236 10235 10234 10233 10231 10230 10228 10226 10226 10225 10223 10223 10223 10221 10221 10220 10218 10218
10313 10312 10311 10310 10310 10309 10308 10307 10306 10305 10304 10303 10302 10301 10300 10299 10298 10296 10295 10295 10293 10292 10291 10290 10288 10286 10285 10284 10283 10282 10281 10280 10279 10278 10277 10276 10275 10273 10271 10269 10267 10266 10264 10262 10261 10259 10257 10256 10255 10253 10252 10250 10248 10246 10246 10245 10245 10243 10241 10240 10240 10238 10237 10236 10235 10234 10233 10231 10230 10228 10227 10226 10224 10222 10221 10220 10218 10217 10216 10216 10215 10215 10214 10213 10211 10210
10308 10307 10306 10306 10305 10304 10303 10302 10301 10300 10299 10298 10297 10296 10295 10294 10293 10292 10290 10289 10288 10287 10285 10284 10282 10281 10279 10278 10276 10276 10275 10273 10273 10271 10271 10270 10268 10267 10265 10263 10261 10260 10258 10256 10255 10253 10251 10249 10248 10247 10246 10245 10243 10241 10240 10238 10238 10236 10235 10234 10233 10231 10230 10229 10228 10227 10226 10224 10223 10221 10220 10219 10218 10216 10215 10212 10211 10210 10209 10208 10208 10207 10206 10206 10205 10203
10303 10302 10301 10301 10300 10299 10298 10297 10296 10295 10294 10293 10292 10291 10290 10289 10288 10286 10285 10284 10283 10281 10280 10278 10276 10275 10273 10271 10270 10270 10268 10267 10266 10265 10264 10263 10263 10261 10259 10257 10256 10254 10251 10250 10248 10246 10245 10242 10241 10240 10240 10240 10238 10236 10234 10232 10231 10230 10228 10227 10226 10225 10224 10223 10221 10220 10219 10218 10216 10215 10213 10212 10211 10210 10208 10206 10204 10203 10201 10201 10201 10200 10200 10199 10198 10196
10298 10297 10296 10296 10295 10294 10293 10292 10291 10290 10289 10288 10286 10286 10285 10283 10282 10281 10280 10279 10277 10275 10274 10272 10271 10269 10266 10265 10263 10263 10261 10260 10259 10258 10256 10256 10256 10255 10253 10251 10250 10248 10246 10243 10241 10240 10238 10236 10234 10232 10231 10233 10233 10232 10229 10226 10224 10223 10221 10220 10220 10219 10218 10216 10215 10214 10213 10211 10210 10208 10207 10205 10204 10203 10201 10200 10198 10196 10195 10194 10193 10193 10193 10193 10191 10190